Blytheville Muni Airport, AR

7:57 AM CST on January 18, 2018 (GMT -0600)
Blytheville Municipal

Weather History for KHKA - September, 2013

Change the Weather History Date:

Sunday, September 29, 2013

  Actual Average Record
Temperature  
Mean Temperature 67 °F -  
Max Temperature 70 °F 80 °F 100 °F (1953)
Min Temperature 64 °F 57 °F 35 °F (1942)
Cooling Degree Days 2    
Growing Degree Days 17 (Base 50)    
Moisture  
Dew Point 63 °F    
Average Humidity 92    
Maximum Humidity 100    
Minimum Humidity 68    
Precipitation  
Precipitation 0.22 in - - ()
Sea Level Pressure  
Sea Level Pressure 30.00 in    
Wind  
Wind Speed 6 mph (SSE)    
Max Wind Speed 10 mph    
Max Gust Speed -    
Visibility 8 miles    
Events Rain    
Averages and records for this station are not official NWS values.
T = Trace of Precipitation, MM = Missing Value Source: NWS Daily Summary

Daily Weather History Graph

Daily Weather History Graph

Search for Another Location

Airport or City:

Trip Planner

Search our weather history database for the weather conditions in past years. The results will help you decide how hot, cold, wet, or windy it might be!

Date:

Astronomy

Sep. 29, 2013 Rise Set
Actual Time 6:52 AM CDT 6:45 PM CDT
Civil Twilight 6:27 AM CDT 7:11 PM CDT
Nautical Twilight 5:57 AM CDT 7:40 PM CDT
Astronomical Twilight 5:27 AM CDT 8:10 PM CDT
Moon 1:43 AM CDT (9/29) 3:33 PM CDT (9/29)
Length of Visible Light 12h 43m
Length of Day
11h 52m
Waning Crescent, 27% of the Moon is Illuminated
Sep 29
Waning Crescent
Oct 4
New
Oct 11
First Quarter
Oct 18
Full
Oct 26
Last Quarter

Hourly Weather History & Observations

Time (CDT) Temp. Dew Point Humidity Pressure Visibility Wind Dir Wind Speed Gust Speed Precip Events Conditions
12:53 AM 70.0 °F 59.0 °F 68% 30.02 in 10.0 mi South 8.1 mph - N/A   Overcast
1:53 AM 70.0 °F 59.0 °F 68% 30.02 in 10.0 mi South 6.9 mph - N/A   Overcast
2:53 AM 69.1 °F 60.1 °F 73% 30.01 in 10.0 mi South 5.8 mph - N/A   Overcast
3:53 AM 68.0 °F 61.0 °F 78% 30.01 in 10.0 mi South 3.5 mph - 0.00 in   Overcast
4:53 AM 66.9 °F 62.1 °F 84% 30.01 in 10.0 mi South 3.5 mph - 0.00 in Rain Light Rain
5:53 AM 66.9 °F 64.0 °F 90% 30.03 in 10.0 mi Calm Calm - 0.02 in   Overcast
6:53 AM 66.0 °F 63.0 °F 90% 30.05 in 10.0 mi Calm Calm - 0.01 in Rain Light Rain
7:53 AM 64.9 °F 63.0 °F 93% 30.03 in 9.0 mi South 9.2 mph - 0.04 in Rain Light Rain
8:42 AM 64.4 °F 62.6 °F 94% 30.04 in 8.0 mi South 9.2 mph - 0.05 in Rain Light Rain
8:53 AM 64.9 °F 63.0 °F 93% 30.03 in 6.0 mi South 9.2 mph - 0.06 in Rain Rain
9:21 AM 64.4 °F 62.6 °F 94% 30.03 in 5.0 mi South 10.4 mph - 0.02 in Rain Rain
9:53 AM 64.9 °F 63.0 °F 93% 30.03 in 10.0 mi South 10.4 mph - 0.04 in   Overcast
10:34 AM 64.4 °F 62.6 °F 94% 30.04 in 10.0 mi South 9.2 mph - 0.03 in Rain Light Rain
10:53 AM 64.9 °F 63.0 °F 93% 30.03 in 6.0 mi South 8.1 mph - 0.03 in Rain Light Rain
11:32 AM 64.4 °F 62.6 °F 94% 30.04 in 6.0 mi South 8.1 mph - 0.01 in Rain Light Rain
11:46 AM 64.4 °F 62.6 °F 94% 30.04 in 8.0 mi South 9.2 mph - 0.01 in Rain Light Rain
11:53 AM 64.9 °F 63.0 °F 93% 30.04 in 5.0 mi SSW 6.9 mph - 0.01 in Rain Light Rain
12:34 PM 64.4 °F 64.4 °F 100% 30.03 in 6.0 mi SSE 5.8 mph - 0.00 in Rain Light Rain
12:53 PM 66.0 °F 64.0 °F 93% 30.01 in 10.0 mi South 5.8 mph - 0.00 in   Overcast
1:31 PM 66.2 °F 64.4 °F 94% 30.00 in 10.0 mi South 8.1 mph - 0.01 in   Overcast
1:41 PM 66.2 °F 64.4 °F 94% 30.00 in 10.0 mi SSE 6.9 mph - 0.01 in   Overcast
1:53 PM 66.0 °F 64.0 °F 93% 29.99 in 10.0 mi SSE 6.9 mph - 0.01 in   Overcast
2:01 PM 66.2 °F 64.4 °F 94% 29.99 in 10.0 mi South 6.9 mph - N/A   Overcast
2:53 PM 66.0 °F 64.0 °F 93% 29.98 in 10.0 mi SSE 5.8 mph - N/A   Overcast
3:24 PM 66.2 °F 64.4 °F 94% 29.98 in 10.0 mi SSE 4.6 mph - N/A   Overcast
3:53 PM 66.9 °F 64.0 °F 90% 29.97 in 10.0 mi SSE 5.8 mph - N/A   Overcast
4:53 PM 66.9 °F 64.0 °F 90% 29.97 in 10.0 mi SE 4.6 mph - N/A   Overcast
5:53 PM 66.9 °F 64.9 °F 93% 29.97 in 7.0 mi East 4.6 mph - N/A   Overcast
6:05 PM 66.2 °F 64.4 °F 94% 29.98 in 5.0 mi ESE 4.6 mph - N/A   Overcast
6:45 PM 66.2 °F 64.4 °F 94% 29.98 in 4.0 mi SSE 5.8 mph - N/A   Overcast
6:53 PM 66.0 °F 64.9 °F 96% 29.98 in 4.0 mi South 5.8 mph - N/A   Overcast
7:04 PM 66.2 °F 64.4 °F 94% 29.98 in 4.0 mi South 4.6 mph - N/A   Overcast
7:11 PM 66.2 °F 64.4 °F 94% 29.98 in 3.0 mi SSE 5.8 mph - N/A   Overcast
7:31 PM 66.2 °F 64.4 °F 94% 29.99 in 5.0 mi South 5.8 mph - N/A   Overcast
7:44 PM 66.2 °F 64.4 °F 94% 29.99 in 4.0 mi SSE 4.6 mph - N/A   Overcast
7:53 PM 66.0 °F 64.0 °F 93% 29.99 in 6.0 mi SSE 4.6 mph - N/A   Overcast
8:05 PM 66.2 °F 64.4 °F 94% 30.00 in 4.0 mi SE 5.8 mph - N/A   Overcast
8:53 PM 64.9 °F 64.0 °F 97% 29.99 in 6.0 mi SSE 8.1 mph - N/A   Overcast
9:15 PM 64.4 °F 64.4 °F 100% 29.99 in 10.0 mi SSE 6.9 mph - N/A   Overcast
9:28 PM 64.4 °F 64.4 °F 100% 29.98 in 10.0 mi South 5.8 mph - N/A   Overcast
9:35 PM 64.4 °F 64.4 °F 100% 29.98 in 10.0 mi SSE 5.8 mph - N/A   Overcast
9:53 PM 64.9 °F 63.0 °F 93% 29.98 in 10.0 mi SSE 6.9 mph - N/A   Overcast
10:53 PM 64.9 °F 64.0 °F 97% 29.98 in 10.0 mi South 5.8 mph - N/A   Overcast
11:53 PM 66.0 °F 64.0 °F 93% 29.97 in 10.0 mi Calm Calm - N/A   Overcast